TimeCDT,TemperatureF,Dew PointF,Humidity,Sea Level PressureIn,VisibilityMPH,Wind Direction,Wind SpeedMPH,Gust SpeedMPH,PrecipitationIn,Events,Conditions,WindDirDegrees,DateUTC
12:56 AM,62.1,54.0,75,29.90,10.0,NW,8.1,-,N/A,,Clear,320,2013-09-01 05:56:00
1:56 AM,60.1,54.0,80,29.90,10.0,NW,8.1,-,N/A,,Clear,310,2013-09-01 06:56:00
2:56 AM,61.0,55.0,81,29.91,10.0,NW,10.4,-,N/A,,Clear,320,2013-09-01 07:56:00
3:56 AM,60.1,55.0,83,29.91,10.0,NW,10.4,-,N/A,,Clear,320,2013-09-01 08:56:00
4:32 AM,59.0,55.4,88,29.94,10.0,NW,10.4,-,N/A,,Mostly Cloudy,320,2013-09-01 09:32:00
4:56 AM,61.0,55.9,83,29.93,10.0,NW,11.5,-,N/A,,Overcast,320,2013-09-01 09:56:00
5:56 AM,61.0,57.0,87,29.95,10.0,NNW,9.2,-,N/A,,Overcast,330,2013-09-01 10:56:00
6:56 AM,60.1,55.0,83,29.97,10.0,North,12.7,-,N/A,,Overcast,350,2013-09-01 11:56:00
7:56 AM,60.1,54.0,80,29.99,10.0,NNW,15.0,-,N/A,,Overcast,340,2013-09-01 12:56:00
8:06 AM,57.2,55.4,94,30.00,10.0,NNW,12.7,21.9,N/A,,Overcast,340,2013-09-01 13:06:00
8:56 AM,60.1,52.0,75,30.01,10.0,NNW,17.3,23.0,N/A,,Scattered Clouds,340,2013-09-01 13:56:00
9:19 AM,59.0,51.8,77,30.03,10.0,NNW,16.1,21.9,N/A,,Mostly Cloudy,330,2013-09-01 14:19:00
9:40 AM,60.8,51.8,72,30.04,10.0,North,12.7,20.7,N/A,,Scattered Clouds,360,2013-09-01 14:40:00
9:53 AM,60.8,51.8,72,30.04,10.0,NNW,16.1,20.7,N/A,,Mostly Cloudy,340,2013-09-01 14:53:00
9:56 AM,60.1,50.0,69,30.04,10.0,North,12.7,-,N/A,,Scattered Clouds,350,2013-09-01 14:56:00
10:13 AM,62.6,50.0,63,30.04,10.0,NNW,15.0,20.7,N/A,,Mostly Cloudy,340,2013-09-01 15:13:00
10:49 AM,62.6,48.2,59,30.05,10.0,North,15.0,24.2,N/A,,Scattered Clouds,350,2013-09-01 15:49:00
10:56 AM,64.0,50.0,60,30.05,10.0,North,17.3,21.9,N/A,,Mostly Cloudy,10,2013-09-01 15:56:00
11:09 AM,64.4,50.0,59,30.05,10.0,North,15.0,23.0,N/A,,Scattered Clouds,360,2013-09-01 16:09:00
11:29 AM,64.4,50.0,59,30.05,10.0,NNW,18.4,23.0,N/A,,Mostly Cloudy,330,2013-09-01 16:29:00
11:46 AM,64.4,48.2,56,30.05,10.0,North,16.1,21.9,N/A,,Scattered Clouds,350,2013-09-01 16:46:00
11:56 AM,64.9,48.9,56,30.05,10.0,North,15.0,27.6,N/A,,Scattered Clouds,350,2013-09-01 16:56:00
12:56 PM,66.9,48.9,52,30.06,10.0,NNW,15.0,20.7,N/A,,Clear,330,2013-09-01 17:56:00
1:56 PM,69.1,46.9,45,30.06,10.0,NNW,12.7,18.4,N/A,,Clear,340,2013-09-01 18:56:00
2:56 PM,71.1,46.9,42,30.05,10.0,North,11.5,20.7,N/A,,Clear,360,2013-09-01 19:56:00
3:56 PM,72.0,46.9,41,30.04,10.0,North,11.5,-,N/A,,Clear,360,2013-09-01 20:56:00
4:56 PM,72.0,46.0,40,30.04,10.0,NNE,9.2,-,N/A,,Clear,20,2013-09-01 21:56:00
5:56 PM,72.0,46.9,41,30.04,10.0,North,10.4,-,N/A,,Clear,360,2013-09-01 22:56:00
6:56 PM,71.1,48.0,44,30.04,10.0,North,8.1,-,N/A,,Clear,350,2013-09-01 23:56:00
7:56 PM,64.9,48.9,56,30.04,10.0,NNW,5.8,-,N/A,,Clear,340,2013-09-02 00:56:00
8:56 PM,57.9,50.0,75,30.06,10.0,North,4.6,-,N/A,,Clear,350,2013-09-02 01:56:00
9:56 PM,55.9,48.9,77,30.07,10.0,North,4.6,-,N/A,,Clear,350,2013-09-02 02:56:00
10:56 PM,54.0,48.9,83,30.09,10.0,NNE,4.6,-,N/A,,Clear,20,2013-09-02 03:56:00
11:56 PM,53.1,48.0,83,30.09,10.0,ENE,3.5,-,N/A,,Clear,60,2013-09-02 04:56:00